Latest  Newer  Older  Last 2 hours animation  Current image  Latest image 
Rain/snow radar  Infrared sat images 
Real-time lightning map

All time is UTC (add 2 hours to UTC in wintertime, 3 hours to UTC in DST for Latvia local time)

2022/12/09 11:20 EVRA 091120Z 19004KT CAVOK M07/M07 Q1010 NOSIG
2022/12/09 11:20 EVLA 091120Z AUTO 08002KT CAVOK M06/M07 Q1009
2022/12/09 11:20 EVVA 091120Z AUTO 00000KT CAVOK M04/M04 Q1009
2022/12/09 11:20 EYKA 091120Z 36003KT 330V040 9000 SCT004 OVC017 M00/M03 Q1009
2022/12/09 11:20 EYPA 091120Z 14004KT CAVOK M05/M06 Q1010
2022/12/09 11:20 EYSA 091120Z 23001KT 1500 0350SE BR PRFG NSC M08/M09 Q1010 NOSIG
2022/12/09 11:20 EYVI 091120Z 19004KT 1300 R19/1400N SN OVC003 M00/M00 Q1009 NOSIG
2022/12/09 08:20 EEKA 090820Z 00000KT CAVOK M04/M04 Q1007
2022/12/09 11:20 EEKE 091120Z 06002KT 9999 VCSH FEW050CB M05/M06 Q1008
2022/12/09 11:20 EEPU 091120Z AUTO 00000KT 0350 R21/P2000N FZFG FEW002/// M05/M06 Q1008
2022/12/09 11:20 EETN 091120Z VRB02KT 0300 R08/0550D FZFG VV002 M08/M09 Q1007 TEMPO 0800
2022/12/09 11:20 EETU 091120Z 25006KT 9999 -SN FEW006 BKN020 OVC049 M02/M03 Q1007
CD  STATION         ICAO  IATA  SYNOP   LAT     LONG   ELEV   M  N  V  U  A  C
   RIGA AIRPORT     EVRA               56 55N  023 58E   10   X     T          6 LV
   LIELVARDE        EVGA               56 47N  024 51E   61   X     T          7 LV
   LIEPAJA INTL     EVLA        26406  56 31N  021 06E    4   X                8 LV
   VENTPILS         EVVA               57 21N  021 33E    6   X                8 LV
   KAUNAS           EYKA               54 54N  023 55E   77   X     T          6 LT
   PALANGA INTL     EYPA               55 55N  021 03E   10   X                6 LT
   SIAULIAI INTL    EYSA               55 54N  023 24E  135   X     T          6 LT
   VILNIUS INTL     EYVI        26730  54 38N  025 17E  197   X     T          6 LT
   AMARI AIR BASE   EEEI               59 16N  024 12E   19   X     T          7 EE
   KARDLA           EEKA        26116  58 59N  022 50E    4   X                8 EE
   KURESSAARE       EEKE               58 14N  022 31E    4   X                8 EE
   PARNU            EEPU               58 25N  024 28E   14   X                8 EE
   TALLINN          EETN        26038  59 24N  024 49E   40   X     T          8 EE
   TARTU            EETU               58 19N  026 41E   67   X                8 EE

!   CD = 2 letter state (province) abbreviation
!   STATION = 16 character station long name
!   ICAO = 4-character international id
!   IATA = 3-character (FAA) id
!   SYNOP = 5-digit international synoptic number
!   LAT = Latitude (degrees minutes)
!   LON = Longitude (degree minutes)
!   ELEV = Station elevation (meters)
!   M = METAR reporting station.   Also Z=obsolete? site
!   N = NEXRAD (WSR-88D) Radar site
!   V = Aviation-specific flag (V=AIRMET/SIGMET end point, A=ARTCC T=TAF U=T+V)
!   U = Upper air (rawinsonde=X) or Wind Profiler (W) site
!   A = Auto (A=ASOS, W=AWOS, M=Meso, H=Human, G=Augmented) (H/G not yet impl.)
!   C = Office type F=WFO/R=RFC/C=NCEP Center
!   Digit that follows is a priority for plotting (0=highest)
!   Country code (2-char) is last column


cloud coverage image from sat24.com and METAR data from weather.noaa.gov